Location: Betpouey
(42.8833°N, 0.0333°E)
Time: 21:39:02
(UTC+00:00)

Cosmos 2181 Rocket - Pass Details

Date: 01 December 2020
Orbit: 951 x 1015 km, 82.9° (Epoch: 18 January)

Event Time Altitude Azimuth Distance (km) Brightness Sun altitude
Rises 17:38:06 0° 192° (SSW) 3,734 7.5 -12.8°
Reaches altitude 10° 17:40:39 10° 194° (SSW) 2,783 6.8 -13.2°
Maximum altitude 17:47:02 72° 279° (W) 1,055 4.3 -14.4°
Drops below altitude 10° 17:53:24 10° 4° (N) 2,765 6.2 -15.5°
Sets 17:55:56 0° 6° (N) 3,709 6.8 -15.9°
